Location: Étouvelles
(49.5207°N, 3.5808°E)
Time: 14:52:21
(UTC+00:00)

CSL-04 Debris - Pass Details

Date: 03 February 2023
Orbit: 826 x 845 km, 98.8° (Epoch: 25 March)

Event Time Altitude Azimuth Distance (km) Brightness Sun altitude
Exits shadow 18:39:35 29° 117° (ESE) 1,489 5.0 -18.9°
Maximum altitude 18:41:50 44° 66° (ENE) 1,137 4.4 -19.2°
Drops below altitude 10° 18:46:56 10° 356° (N) 2,444 6.6 -20.1°
Sets 18:49:23 0° 350° (N) 3,380 7.4 -20.5°
